Location: ????????
(55.0559°N, 39.1270°E)
Time: 09:12:19
(UTC+00:00)

In-Cosmos 22 Rocket - Pass Details

Date: 15 November 2025
Orbit: 788 x 886 km, 81.2° (Epoch: 14 December)

Event Time Altitude Azimuth Distance (km) Brightness Sun altitude
Rises 02:42:58 0° 189° (S) 3,482 7.4 -18.6°
Reaches altitude 10° 02:45:24 10° 189° (S) 2,547 6.7 -18.3°
Maximum altitude 02:51:14 85° 102° (ESE) 895 4.3 -17.5°
Drops below altitude 10° 02:57:02 10° 15° (NNE) 2,537 6.8 -16.7°
Sets 02:59:28 0° 15° (NNE) 3,468 7.5 -16.3°
